Other Public Products
Issued by NWS Grand Forks, ND

Home | Current Version | Previous Version | Graphics & Text | Print | Product List | Glossary On
Versions: 1 2 3 4 5 6 7 8 9 10 11 12 13 14 15 16 17 18 19 20 21 22 23 24 25 26 27 28 29 30 31 32 33 34 35 36 37 38 39 40 41 42 43 44 45 46 47 48 49 50
000
FPUS83 KFGF 062210
OPUFGF
PRAIRIE TO PINES WEATHER ROUNDUP
NATIONAL WEATHER SERVICE EASTERN NORTH DAKOTA/GRAND FORKS ND
500 PM CDT WED MAY 06 2015

 **SATELLITE DATA USED TO AUGMENT SKY COVER AT AUTOMATED STATIONS**
 *****  WEATHER ACROSS EASTERN NORTH DAKOTA  *****

CITY           SKY/WX    TMP DP  RH WIND       PRES   REMARKS
GRAND FORKS    LGT RAIN  62  60  93 SE15      29.76F FOG
GRAND FORKS AF LGT RAIN  62  60  94 SE12      29.76F FOG
GRAND CITY NWS   N/A     59 N/A N/A E14         N/A
BUXTON         NOT AVBL
DEVILS LAKE    CLOUDY    61  55  82 SE14      29.72F
FARGO          LGT RAIN  66  60  81 E15       29.74F
WAHPETON ARPT  CLOUDY    63  57  82 SE13      29.74S
$$

 *****  WEATHER ACROSS CENTRAL AND WESTERN NORTH DAKOTA  *****

CITY           SKY/WX    TMP DP  RH WIND       PRES   REMARKS
JAMESTOWN      LGT RAIN  61  59  93 E14       29.69F FOG
BISMARCK       CLOUDY    70  58  65 SE14      29.63F
MINOT          RAIN      59  56  89 SW8       29.64S FOG
MINOT AFB      LGT RAIN  59  59 100 S8        29.64R FOG
GARRISON         N/A     62  59  90 NW12      29.64F
WILLISTON      RAIN      54  51  90 N20       29.70R FOG
DICKINSON      CLOUDY    62  55  77 NE9       29.63F
HETTINGER      CLOUDY    63  54  72 VRB3      29.63F
$$

 *****  OTHER OBSERVATIONS NORTHEAST NORTH DAKOTA  *****

CITY           SKY/WX    TMP DP  RH WIND       PRES   REMARKS
WALHALLA       CLOUDY    63  63 100 SE16      29.77F
LANGDON        CLOUDY    61  61 100 SE23G29   29.76F
CAVALIER       CLOUDY    63  61  94 SE12G18   29.77F FOG
GRAFTON        DRIZZLE   63  63 100 SE15G22   29.78F
CANDO          CLOUDY    61  59  94 SE23      29.72F
FORT TOTTEN      N/A     63  61  92 SE10      29.95
ROLLA          NOT AVBL
RUGBY          NOT AVBL
 ***** THE ABOVE OBSERVATIONS ARE NON NWS ARE NOT QUALITY
        CONTROLLED AND MAY MIS-REPORT RAIN FOR SNOW...
$$

 *****  OTHER OBSERVATIONS SOUTHEAST NORTH DAKOTA *****

CITY           SKY/WX    TMP DP  RH WIND       PRES   REMARKS
COOPERSTOWN    NOT AVBL
VALLEY CITY    LGT RAIN  59  59 100 E14       29.73F
OAKES          LGT RAIN  61  61 100 E21       29.67F
GWINNER          N/A     63  63 100 E13       29.70F
BUFFALO        NOT AVBL
WYNDMERE       NOT AVBL
 ***** THE ABOVE OBSERVATIONS ARE NON NWS ARE NOT QUALITY
       CONTROLLED AND MAY MIS-REPORT RAIN FOR SNOW...
$$

  *****  WEATHER ACROSS NORTHERN MINNESOTA  *****

CITY           SKY/WX    TMP DP  RH WIND       PRES   REMARKS
FLAG ISLAND    DRIZZLE   57  54  88 SE5       29.88F
WARROAD        LGT RAIN  64  61  88 SE10      29.87F
ROSEAU         DRIZZLE   64  59  82 SE13      29.85F
HALLOCK        DRIZZLE   64  63  94 SE15      29.79F
THF RVR FALLS  CLOUDY    63  59  88 SE12      29.83F
HALSTAD        NOT AVBL
FOSSTON        DRIZZLE   63  57  82 E8        29.81F
BAUDETTE       LGT RAIN  63  58  83 SE9       29.89F
WASKISH        DRIZZLE   63  57  82 CALM      29.89F
CROOKSTON      LGT RAIN  61  61 100 E12       29.78F
$$
  *****  WEATHER ACROSS CENTRAL AND WEST MINNESOTA  *****

CITY           SKY/WX    TMP DP  RH WIND       PRES   REMARKS
BEMIDJI        CLOUDY    64  55  70 E13       29.85F
PARK RAPIDS    CLOUDY    69  55  60 E14       29.81F
WADENA         CLOUDY    68  55  64 E21       29.79F
DETROIT LAKES  LGT RAIN  66  55  68 SE15      29.79F
MOORHEAD       DRIZZLE   64  59  82 E14G20    29.76S
FERGUS FALLS   CLOUDY    64  57  77 E10G20    29.74F
ELBOW LAKE     LGT RAIN  67  58  74 SE22G29   29.74F
MORRIS MN      LGT RAIN  64  63  94 S7        29.74F
STAPLES        CLOUDY    70  54  56 E9G18     29.81F
WHEATON        CLOUDY    64  61  88 SE21G26   29.72F
$$
  *****  WEATHER ELSEWHERE ACROSS MINNESOTA  *****

CITY           SKY/WX    TMP DP  RH WIND       PRES   REMARKS
DULUTH         CLOUDY    61  52  72 E15       29.98F
INTRNTL FALLS  CLOUDY    67  56  67 S8        29.92F
ELY            CLOUDY    64  52  63 SE14      29.98F
CLOQUET        CLOUDY    57  46  67 E10G18    29.96F
BRAINERD       CLOUDY    68  55  63 E9G20     29.85F
HIBBING        CLOUDY    62  51  67 SE13      29.96F
ALEXANDRIA     CLOUDY    65  59  81 SE15G26   29.80F
SAINT CLOUD    TSTM      73  56  54 SE16G26   29.81F
MINNEAPOLIS    CLOUDY    75  57  53 SE22G33   29.87F
$$

  *****  WEATHER ACROSS SOUTH DAKOTA  *****

CITY           SKY/WX    TMP DP  RH WIND       PRES   REMARKS
SIOUX FALLS    CLOUDY    68  60  75 S23G41    29.73S
BROOKINGS      PTSUNNY   68  63  83 S17G24    29.72F
WATERTOWN      PTSUNNY   67  59  75 S20G33    29.69F
HURON          PTSUNNY   71  63  75 S10       29.63F
SISSETON         N/A     65  63  93 S14G26    29.67F
ABERDEEN       LGT RAIN  65  61  87 S21G31    29.63F FOG
MITCHELL       MOSUNNY   73  60  63 S22G31    29.64F
PIERRE         LGT RAIN  65  58  78 SE14      29.58F
MOBRIDGE       CLOUDY    70  59  68 SE15      29.58F
RAPID CITY     TSTM      60  56  86 E13       29.59F
$$

  *****  SOME WEATHER IN NEARBY STATES *****

CITY           SKY/WX    TMP DP  RH WIND       PRES   REMARKS
GLASGOW MT     PTSUNNY   59  39  47 NW21G30   29.82S
GREAT FALLS MT MOSUNNY   57  24  28 N10       29.91F
CHEYENNE WY    CLOUDY    54  46  74 N15G21    29.71R
SCOTTSBLUFF NE LGT RAIN  58  54  86 N10       29.62S
OMAHA NE       CLOUDY    71  61  70 SE21G32   29.78F
DES MOINES IA  CLOUDY    73  57  57 S15G25    29.90F
DAVENPORT IA   PTSUNNY   82  53  36 S18G28    29.99F
CHICAGO IL     PTSUNNY   69  56  62 E10       30.08F
EAU CLAIRE WI  PTSUNNY   76  57  51 SE13G21   29.95F
LA CROSSE WI   PTSUNNY   80  56  43 SE14G23   29.95F
$$

  *****  SOME NATIONAL WEATHER *****

CITY           SKY/WX    TMP DP  RH WIND       PRES   REMARKS
LA GUARDIA NY  MOSUNNY   64  43  46 NE10      30.24S
RALEIGH NC     PTSUNNY   79  56  45 S10       30.14F
ATLANTA GA     MOSUNNY   80  51  36 CALM      30.12S
NEW ORLEANS LA PTSUNNY   81  66  60 E15       30.02S
OKLAHOMA CITY  TSTM      71  67  87 S15G25    29.82S
ALBUQUERQUE NM LGT RAIN  68  37  32 SW12G29   29.86F
SALT LAKE CITY LGT RAIN  54  48  80 E13       29.75F
LOS ANGELES CA MOSUNNY   63  49  60 W14       29.87F
BOISE ID       PTSUNNY   62  22  21 NW12      29.79F
SEATTLE WA     PTSUNNY   58  42  55 NW8       30.11F
$$

*** WEATHER ACROSS MANITOBA...SASKATCHEWAN AND ONTARIO ***
                ***ONTARIO***

CITY           SKY/WX    TMP DP  RH WIND       PRES   REMARKS
GERALDTON      PTSUNNY   72  25  17 S8G21     30.08F
THUNDER BAY    CLOUDY    59  27  29 E15       30.09F
SIOUX LOOKOUT  CLOUDY    70  50  49 S8        29.95F
TORONTO        PTSUNNY   70  39  32 SE9       30.20F
BIG TROUT LK   SUNNY     54  28  37 E13G23    30.05F
PICKLE LAKE    PTSUNNY   73  28  19 S16       29.95F
DRYDEN         PTSUNNY   68  54  60 SE13      29.94F
KENORA         LGT RAIN  61  57  88 S7        29.92S
$$
                *** MANITOBA***

CITY           SKY/WX    TMP DP  RH WIND       PRES   REMARKS
BRANDON        LGT RAIN  59  57  94 SE8       29.73F FOG
DAUPHIN        LGT RAIN  64  59  82 S6        29.70F
ISLAND LAKE    PTSUNNY   59  36  41 E14G26    29.86F
PILOT MOUND      N/A     59  57  94 SE18        N/A
THE PAS        LGT RAIN  41  37  87 NE9       29.75F
THOMPSON       CLOUDY    28  21  74 NE15G29   30.03F WCI  17
WINNIPEG       LGT RAIN  63  61  94 S7        29.79F FOG
LYNN LAKE      LGT SNOW  25  23  93 NE20G25   30.08F VSB 5/8 WCI  11
CHURCHILL      CLOUDY    19 N/A N/A N17         N/A  WCI   4
GILLAM         CLOUDY    25  19  80 E10G22    30.19F WCI  15
$$
                ***SASKATCHEWAN***

CITY           SKY/WX    TMP DP  RH WIND       PRES   REMARKS
ESTEVAN        LGT RAIN  55  54  94 NW15G21   29.71S
KINDERSLEY     MOSUNNY   50  30  46 NW20G30   29.88R
LLOYDMINSTER   CLOUDY    37  32  81 NW14G22   29.90R
PRINCE ALBERT  NOT AVBL
REGINA         CLOUDY    54  46  76 NW17G24   29.76S
YORKTON        LGT RAIN  61  55  82 W10       29.67S HAZE


USA.gov is the U.S. government's official web portal to all federal, state and local government web resources and services.